Weather History for KWLD - January, 2013

Change the Weather History Date:

Friday, January 18, 2013

  Actual Average Record
Temperature  
Mean Temperature 44 °F -  
Max Temperature 57 °F 43 °F 70 °F (2015)
Min Temperature 32 °F 23 °F 10 °F (1997)
Degree Days  
Heating Degree Days 20    
Moisture  
Dew Point 30 °F    
Average Humidity 57    
Maximum Humidity 82    
Minimum Humidity 36    
Precipitation  
Precipitation 0.00 in - - ()
Sea Level Pressure  
Sea Level Pressure 30.28 in    
Wind  
Wind Speed 13 mph (South)    
Max Wind Speed 29 mph    
Max Gust Speed 38 mph    
Visibility 10 miles    
Events      
Averages and records for this station are not official NWS values.
T = Trace of Precipitation, MM = Missing Value Source: NWS Daily Summary

Daily Weather History Graph

Daily Weather History Graph

Search for Another Location

Airport or City:

Trip Planner

Search our weather history database for the weather conditions in past years. The results will help you decide how hot, cold, wet, or windy it might be!

Date:

Astronomy

Jan. 18, 2013 Rise Set
Actual Time 7:39 AM CST 5:38 PM CST
Civil Twilight 7:11 AM CST 6:06 PM CST
Nautical Twilight 6:39 AM CST 6:38 PM CST
Astronomical Twilight 6:08 AM CST 7:09 PM CST
Moon 11:30 AM CST (1/18) 12:18 AM CST (1/18)
Length of Visible Light 10h 54m
Length of Day
9h 58m
Waxing Crescent, 47% of the Moon is Illuminated
Jan 18
Waxing Crescent
Jan 18
First Quarter
Jan 26
Full
Feb 3
Last Quarter
Feb 10
New

Hourly Weather History & Observations

Time (CST) Temp. Windchill Dew Point Humidity Pressure Visibility Wind Dir Wind Speed Gust Speed Precip Events Conditions
12:54 AM 33.1 °F 26.1 °F 27.0 °F 78% 30.45 in 10.0 mi South 8.1 mph - N/A   Clear
1:54 AM 32.0 °F 26.4 °F 26.1 °F 79% 30.46 in 10.0 mi South 5.8 mph - N/A   Clear
2:54 AM 32.0 °F 24.8 °F 27.0 °F 82% 30.45 in 10.0 mi South 8.1 mph - N/A   Clear
3:54 AM 35.1 °F 26.9 °F 28.9 °F 78% 30.42 in 10.0 mi South 11.5 mph - N/A   Clear
4:54 AM 34.0 °F 26.0 °F 28.0 °F 79% 30.40 in 10.0 mi South 10.4 mph - N/A   Clear
5:54 AM 35.1 °F 27.4 °F 28.9 °F 78% 30.38 in 10.0 mi South 10.4 mph - N/A   Clear
6:54 AM 36.0 °F 28.0 °F 28.9 °F 76% 30.38 in 10.0 mi South 11.5 mph - N/A   Clear
7:54 AM 34.0 °F 26.0 °F 28.0 °F 79% 30.38 in 10.0 mi SSE 10.4 mph - N/A   Clear
8:54 AM 41.0 °F 33.1 °F 30.0 °F 65% 30.38 in 10.0 mi South 15.0 mph 23.0 mph N/A   Clear
9:54 AM 46.0 °F 38.5 °F 30.9 °F 56% 30.38 in 10.0 mi South 19.6 mph 24.2 mph N/A   Clear
10:54 AM 50.0 °F - 30.9 °F 48% 30.37 in 10.0 mi SSW 18.4 mph 26.5 mph N/A   Clear
11:54 AM 53.1 °F - 30.9 °F 43% 30.32 in 10.0 mi SSW 26.5 mph 34.5 mph N/A   Clear
12:54 PM 55.9 °F - 30.0 °F 37% 30.27 in 10.0 mi SSW 27.6 mph 35.7 mph N/A   Clear
1:54 PM 57.9 °F - 30.9 °F 36% 30.22 in 10.0 mi SW 28.8 mph 38.0 mph N/A   Clear
2:54 PM 57.9 °F - 30.9 °F 36% 30.20 in 10.0 mi SSW 23.0 mph 34.5 mph N/A   Clear
3:54 PM 57.9 °F - 30.9 °F 36% 30.18 in 10.0 mi SSW 21.9 mph 32.2 mph N/A   Clear
4:54 PM 55.9 °F - 30.9 °F 39% 30.17 in 10.0 mi SSW 17.3 mph 24.2 mph N/A   Clear
5:54 PM 53.1 °F - 30.0 °F 41% 30.17 in 10.0 mi SSW 12.7 mph - N/A   Clear
6:54 PM 50.0 °F - 30.9 °F 48% 30.17 in 10.0 mi South 12.7 mph - N/A   Clear
7:54 PM 51.1 °F - 30.9 °F 46% 30.17 in 10.0 mi South 19.6 mph 26.5 mph N/A   Clear
8:54 PM 48.0 °F - 30.9 °F 52% 30.16 in 10.0 mi South 12.7 mph - N/A   Clear
9:54 PM 46.9 °F - 30.0 °F 52% 30.13 in 10.0 mi South 15.0 mph - N/A   Clear
10:54 PM 46.9 °F - 28.9 °F 50% 30.11 in 10.0 mi South 18.4 mph 25.3 mph N/A   Clear
11:54 PM 46.0 °F 39.0 °F 30.0 °F 54% 30.10 in 10.0 mi South 17.3 mph 25.3 mph N/A   Clear